Location: La Vergne
(36.0160°N, 86.5820°W)
Time: 07:18:30
(UTC-06:00)

Daily predictions for brighter satellites

Satellite Brightness Start Highest point End
(mag) Time Altitude Azimuth Time Altitude Azimuth Time Altitude Azimuth
Cosmos 304 Rocket 3.9 16:54:57 10° N 16:59:40 55° ENE 17:04:21 10° SSE
OAO 3 Copernicus 4.5 16:57:32 10° W 17:02:38 78° S 17:07:43 10° E
COSMOS 2455 3.9 16:59:03 10° SW 17:04:47 46° WNW 17:10:35 10° NNE
Cosmos 1908 Rocket 3.9 17:01:54 10° N 17:06:02 42° E 17:10:08 10° SSE
Cosmos 1484 Rocket 2.8 17:02:29 10° SSE 17:06:15 57° ENE 17:10:07 10° N
Cosmos 1733 Rocket 3.4 17:01:53 10° N 17:06:19 72° W 17:10:45 10° S
Landsat 4 4.4 17:04:04 10° NNE 17:07:34 35° E 17:11:04 10° SSE
CZ-4 R/B 1.7 17:04:23 10° SE 17:08:01 40° ENE 17:11:37 10° N
Cosmos 1814 Rocket 4.0 17:02:54 10° NNW 17:08:17 80° ENE 17:13:37 10° SSE
IRAS Rocket 4.4 17:05:01 10° SSE 17:10:34 81° WSW 17:16:07 10° NNW
SL-27 R/B 3.1 17:08:56 10° N 17:11:57 31° ENE 17:14:59 10° SE
CSL-04 Rocket 3.6 17:06:49 10° SSE 17:12:05 86° ENE 17:17:27 10° NNW
EO 1 Del DPAF 4.4 17:10:01 10° NE 17:13:12 24° E 17:16:21 10° SSE
Cosmos 540 Rocket 4.2 17:09:34 10° N 17:14:04 29° ENE 17:18:31 10° SE
Cosmos 2233 Rocket 4.1 17:08:44 10° S 17:15:00 86° W 17:21:15 10° N
Cosmos 1503 Rocket 4.2 17:11:30 10° S 17:16:35 50° ESE 17:21:38 10° NNE
USA 234 3.8 17:11:50 10° ENE 17:18:01 43° SE 17:24:09 10° SSW
Ariane Rocket 3.0 17:13:56 10° SSE 17:19:01 89° E 17:24:07 10° NNW
Cosmos 2082 Rocket 2.8 17:14:47 10° N 17:19:53 33° ENE 17:24:56 10° SE
ERS-2 2.8 17:22:18 10° SE 17:25:37 33° ENE 17:28:57 10° N
Okean 1-7 3.2 17:22:21 10° SSE 17:26:33 49° E 17:30:49 10° NNE
Cosmos 841 Rocket 3.4 17:21:47 10° NNW 17:27:05 79° ENE 17:32:20 10° SSE
Sich 1 Rocket 3.6 17:23:19 10° N 17:27:43 63° E 17:32:09 10° SSE
Meteor 1-20 Rocket 4.1 17:22:24 10° N 17:27:56 71° E 17:33:22 10° SSE
AQUARIUS 4.3 17:23:52 10° S 17:28:21 81° WSW 17:32:52 10° NNW
Meteor 1-25 Rocket 4.3 17:25:04 10° N 17:30:56 84° E 17:36:42 10° S
ALOS 3.1 17:27:25 10° SE 17:31:18 27° ENE 17:35:11 10° NNE
Cosmos 1782 2.7 17:28:26 10° S 17:32:27 75° E 17:36:28 10° N
Cosmos 405 Rocket 3.3 17:30:07 10° SSE 17:33:34 33° E 17:36:33 12° NNE
SMAP 3.6 17:33:58 10° S 17:38:33 61° W 17:43:09 10° NNW
IUS-13 SRM-1 3.9 17:46:17 10° SSW 17:47:11 12° SSE 17:48:17 10° SE
Cosmos 1633 2.5 17:43:50 10° N 17:47:31 87° E 17:51:11 10° S
BREEZE-M DEB (TANK) 3.3 17:41:01 10° WNW 17:48:21 59° SW 17:51:30 10° SE
Cosmos 1782 Rocket 3.4 17:46:24 10° N 17:50:45 80° E 17:55:07 10° S
Meteor 1-27 Rocket 4.0 17:47:45 10° SSE 17:53:26 51° E 17:59:10 10° NNE
YAOGAN 1 2.7 17:49:22 10° S 17:53:41 78° WSW 17:58:02 10° NNW
CZ-4C R/B 3.5 17:47:39 10° NNW 17:54:05 33° NE 17:58:04 22° E
Cosmos 1354 Rocket 4.3 17:50:34 10° SSW 17:55:49 69° WNW 18:01:05 10° NNE
FENGYUN 3A 3.8 17:50:54 10° SE 17:56:06 50° ENE 18:01:18 10° N
COSMO-SKYMED 1 2.6 17:52:37 10° N 17:56:59 84° WNW 18:01:19 10° SSW
Cosmos 1891 Rocket 4.4 17:51:59 10° S 17:58:09 76° E 18:04:13 10° N
SPOT 3 Rocket 3.5 17:57:00 10° SSE 18:02:09 67° ENE 18:07:20 10° N
USA 229 DEB 4.2 17:56:34 10° S 18:02:40 38° ESE 18:05:14 28° ENE
USA 229 4.2 17:56:42 10° S 18:02:46 37° ESE 18:05:17 28° ENE
Meteor 1-10 Rocket 4.4 17:57:38 10° SSW 18:03:16 76° W 18:09:04 10° N
Tiangong 1 1.9 18:07:38 10° SW 18:09:26 35° SSW 18:09:26 35° SSW
Cosmos 2369 Rocket 3.5 18:08:32 10° SSE 18:11:27 22° SE 18:11:27 22° SE
Cosmos 1833 Rocket 2.7 18:08:01 10° NNW 18:13:40 84° WSW 18:19:17 10° SSE
Nadezhda 4 Rocket 3.9 18:10:52 10° N 18:16:53 56° E 18:22:51 10° SSE
Cosmos 2034 Rocket 4.0 18:13:56 10° S 18:20:18 84° W 18:26:42 10° N
OAO 3 Rocket 3.4 18:15:37 10° WSW 18:20:28 60° SSE 18:21:32 48° ESE
Meteor 2-20 4.3 18:22:03 10° N 18:28:10 88° E 18:34:13 10° S
NOAA 12 4.2 18:23:08 10° S 18:28:27 79° WSW 18:33:47 10° NNW
Timation 2 Rocket 4.1 18:23:09 10° NNW 18:29:44 53° ENE 18:31:12 44° ESE
ISS -1.0 18:32:02 10° S 18:32:21 12° S 18:32:21 12° S
Cosmos 1441 Rocket 4.4 18:31:11 10° SSW 18:34:57 43° W 18:36:58 23° NNW
Cosmos 1092 Rocket 4.0 18:28:56 10° N 18:34:57 54° E 18:40:59 10° SSE
BREEZE-M R/B 3.4 18:32:21 10° WNW 18:35:35 61° SW 18:37:03 40° SSE
Okean 2 Rocket 4.1 18:31:25 10° NNW 18:35:46 48° W 18:40:06 10° SSW
GPS 2-05 Rocket1 4.3 18:33:16 10° W 18:35:12 33° WSW 18:35:12 33° WSW
Cosmos 44 Rocket 3.2 18:31:38 10° NNW 18:36:34 90° S 18:37:32 59° SSE
Meteor 1-11 Rocket 3.7 18:30:59 10° N 18:36:51 84° W 18:42:31 10° S
Thor Agena Rocket 3.3 18:36:31 68° ENE 18:36:56 72° ESE 18:42:04 10° S
Cosmos 405 4.1 18:36:47 10° NNW 18:40:13 45° W 18:43:39 10° SSW
Cosmos 292 Rocket 4.2 18:38:34 10° NNW 18:43:15 59° WSW 18:47:54 10° S
Cosmos 968 Rocket 4.4 18:52:45 10° SW 18:57:41 44° WNW 18:59:38 31° NNW
Cosmos 44 4.2 18:55:37 10° NW 19:00:11 46° WSW 19:01:17 39° SSW
USA 234 3.9 18:58:40 35° NNE 19:01:00 49° NW 19:07:12 10° WSW
Cosmos 2082 Rocket 4.0 18:58:58 10° NW 19:03:50 30° WSW 19:08:38 10° SSW
ALOS 4.3 19:04:45 10° SSW 19:08:38 26° W 19:12:33 10° NW
CZ-4C R/B 3.4 19:35:45 10° NW 19:43:02 58° WSW 19:43:23 57° SW
Cosmos 2369 Rocket 4.4 19:51:29 10° SW 19:53:19 20° WSW 19:53:19 20° WSW
